Fremont, NE

10:31 AM CDT on April 27, 2017 (GMT -0500)
Fremont Municipal

Weather History for KFET - January, 2013

Change the Weather History Date:

Friday, January 4, 2013

  Actual Average Record
Temperature  
Mean Temperature 22 °F -  
Max Temperature 29 °F 28 °F 57 °F (2012)
Min Temperature 14 °F 10 °F -19 °F (1969)
Degree Days  
Heating Degree Days 44    
Moisture  
Dew Point 16 °F    
Average Humidity 78    
Maximum Humidity 92    
Minimum Humidity 65    
Precipitation  
Precipitation 0.00 in - - ()
Sea Level Pressure  
Sea Level Pressure 30.19 in    
Wind  
Wind Speed 6 mph (SSW)    
Max Wind Speed 9 mph    
Max Gust Speed -    
Visibility 10 miles    
Events      
Averages and records for this station are not official NWS values.
T = Trace of Precipitation, MM = Missing Value Source: NWS Daily Summary

Daily Weather History Graph

Daily Weather History Graph

Search for Another Location

Airport or City:

Trip Planner

Search our weather history database for the weather conditions in past years. The results will help you decide how hot, cold, wet, or windy it might be!

Date:

Astronomy

Jan. 04, 2013 Rise Set
Actual Time 7:52 AM CST 5:10 PM CST
Civil Twilight 7:21 AM CST 5:41 PM CST
Nautical Twilight 6:46 AM CST 6:15 PM CST
Astronomical Twilight 6:13 AM CST 6:49 PM CST
Moon No Moon Rise 11:30 AM CST (1/4)
Length of Visible Light 10h 19m
Length of Day
9h 17m
Waning Gibbous, 55% of the Moon is Illuminated
Jan 4
Waning Gibbous
Jan 4
Last Quarter
Jan 11
New
Jan 18
First Quarter
Jan 26
Full

Hourly Weather History & Observations

Time (CST) Temp. Windchill Dew Point Humidity Pressure Visibility Wind Dir Wind Speed Gust Speed Precip Events Conditions
12:15 AM 17.6 °F 7.3 °F 15.3 °F 91% 30.29 in 10.0 mi SSW 8.1 mph - N/A   Clear
12:35 AM 17.8 °F 7.5 °F 15.3 °F 90% 30.28 in 10.0 mi SSW 8.1 mph - N/A   Clear
12:55 AM 17.8 °F 6.6 °F 15.4 °F 91% 30.27 in 10.0 mi SSW 9.2 mph - N/A   Clear
1:15 AM 17.4 °F 6.2 °F 14.9 °F 90% 30.26 in 10.0 mi SW 9.2 mph - N/A   Clear
1:35 AM 17.1 °F 7.6 °F 14.9 °F 91% 30.26 in 10.0 mi SW 6.9 mph - N/A   Clear
1:55 AM 16.3 °F 7.8 °F 14.4 °F 92% 30.26 in 10.0 mi SSW 5.8 mph - N/A   Clear
2:15 AM 16.2 °F 7.6 °F 14.0 °F 91% 30.25 in 10.0 mi SSW 5.8 mph - N/A   Clear
2:35 AM 16.2 °F 7.6 °F 14.0 °F 91% 30.25 in 10.0 mi SW 5.8 mph - N/A   Clear
2:55 AM 16.3 °F 10.8 °F 14.0 °F 90% 30.25 in 10.0 mi SSW 3.5 mph - N/A   Clear
3:15 AM 16.7 °F 9.6 °F 14.7 °F 92% 30.25 in 10.0 mi SSW 4.6 mph - N/A   Clear
5:55 AM 16.5 °F 11.0 °F 13.8 °F 89% 30.21 in 10.0 mi SSW 3.5 mph - N/A   Clear
6:15 AM 16.2 °F 7.6 °F 13.6 °F 90% 30.21 in 10.0 mi SSW 5.8 mph - N/A   Clear
6:35 AM 15.8 °F - 13.1 °F 89% 30.21 in 10.0 mi Calm Calm - N/A   Clear
7:15 AM 15.4 °F 6.8 °F 13.1 °F 90% 30.21 in 10.0 mi South 5.8 mph - N/A   Clear
7:35 AM 15.3 °F 7.9 °F 12.6 °F 89% 30.21 in 10.0 mi SSW 4.6 mph - N/A   Clear
7:55 AM 14.4 °F 5.5 °F 11.7 °F 89% 30.21 in 10.0 mi SSW 5.8 mph - N/A   Clear
8:15 AM 14.2 °F 8.4 °F 11.5 °F 89% 30.21 in 10.0 mi SSW 3.5 mph - N/A   Clear
8:35 AM 14.9 °F - 11.8 °F 88% 30.21 in 10.0 mi Calm Calm - N/A   Clear
8:55 AM 15.8 °F 10.2 °F 12.0 °F 85% 30.21 in 10.0 mi SSW 3.5 mph - N/A   Clear
9:15 AM 16.5 °F 9.4 °F 12.0 °F 82% 30.21 in 10.0 mi SW 4.6 mph - N/A   Clear
9:35 AM 17.4 °F 9.1 °F 12.2 °F 80% 30.22 in 10.0 mi SW 5.8 mph - N/A   Clear
9:55 AM 18.1 °F 11.3 °F 12.2 °F 78% 30.23 in 10.0 mi SSW 4.6 mph - N/A   Clear
10:15 AM 18.9 °F 10.8 °F 12.6 °F 76% 30.24 in 10.0 mi SSW 5.8 mph - N/A   Clear
10:35 AM 19.4 °F 11.5 °F 12.7 °F 75% 30.24 in 10.0 mi SSW 5.8 mph - N/A   Clear
10:55 AM 20.5 °F 14.0 °F 13.1 °F 73% 30.24 in 10.0 mi SSW 4.6 mph - N/A   Clear
11:15 AM 21.2 °F 14.9 °F 13.6 °F 73% 30.23 in 10.0 mi South 4.6 mph - N/A   Clear
11:35 AM 22.1 °F 14.7 °F 14.4 °F 72% 30.22 in 10.0 mi South 5.8 mph - N/A   Clear
11:55 AM 23.0 °F 13.1 °F 14.7 °F 71% 30.21 in 10.0 mi South 9.2 mph - N/A   Clear
12:15 PM 23.7 °F 15.6 °F 15.4 °F 71% 30.21 in 10.0 mi SSW 6.9 mph - N/A   Clear
12:35 PM 24.8 °F 16.9 °F 16.2 °F 70% 30.20 in 10.0 mi South 6.9 mph - N/A   Clear
12:55 PM 25.3 °F 17.6 °F 16.9 °F 70% 30.19 in 10.0 mi SSW 6.9 mph - N/A   Clear
1:15 PM 25.9 °F 19.2 °F 16.9 °F 69% 30.18 in 10.0 mi SSW 5.8 mph - N/A   Clear
1:35 PM 26.6 °F 20.0 °F 17.6 °F 69% 30.17 in 10.0 mi South 5.8 mph - N/A   Clear
1:55 PM 27.5 °F 19.3 °F 18.3 °F 68% 30.17 in 10.0 mi South 8.1 mph - N/A   Clear
2:15 PM 28.2 °F 20.2 °F 18.5 °F 67% 30.17 in 10.0 mi South 8.1 mph - N/A   Clear
2:35 PM 28.8 °F 21.7 °F 18.7 °F 66% 30.16 in 10.0 mi SSW 6.9 mph - N/A   Clear
2:55 PM 29.1 °F 22.1 °F 19.0 °F 66% 30.16 in 10.0 mi South 6.9 mph - N/A   Clear
3:15 PM 29.7 °F 24.7 °F 19.2 °F 65% 30.16 in 10.0 mi South 4.6 mph - N/A   Clear
3:35 PM 29.8 °F - 19.4 °F 65% 30.15 in 10.0 mi Calm Calm - N/A   Clear
3:55 PM 29.5 °F 24.5 °F 19.9 °F 68% 30.16 in 10.0 mi South 4.6 mph - N/A   Clear
4:15 PM 28.8 °F 21.7 °F 19.4 °F 68% 30.16 in 10.0 mi South 6.9 mph - N/A   Clear
4:35 PM 29.1 °F 21.3 °F 19.8 °F 68% 30.16 in 10.0 mi SSE 8.1 mph - N/A   Clear
4:55 PM 28.2 °F 20.2 °F 19.8 °F 71% 30.17 in 10.0 mi South 8.1 mph - N/A   Clear
5:15 PM 27.1 °F 20.7 °F 19.4 °F 73% 30.17 in 10.0 mi South 5.8 mph - N/A   Clear
5:35 PM 27.1 °F 21.8 °F 19.2 °F 72% 30.16 in 10.0 mi South 4.6 mph - N/A   Clear
5:55 PM 26.8 °F 21.4 °F 18.9 °F 72% 30.15 in 10.0 mi South 4.6 mph - N/A   Clear
6:15 PM 26.6 °F 21.2 °F 18.5 °F 71% 30.16 in 10.0 mi South 4.6 mph - N/A   Clear
6:35 PM 26.8 °F 17.7 °F 18.7 °F 72% 30.16 in 10.0 mi South 9.2 mph - N/A   Clear
6:55 PM 26.6 °F 17.5 °F 18.5 °F 71% 30.17 in 10.0 mi SSW 9.2 mph - N/A   Clear
7:15 PM 26.2 °F 19.6 °F 18.5 °F 73% 30.16 in 10.0 mi South 5.8 mph - N/A   Clear
7:35 PM 25.7 °F 19.0 °F 18.5 °F 74% 30.16 in 10.0 mi South 5.8 mph - N/A   Clear
7:55 PM 25.5 °F 21.3 °F 18.3 °F 74% 30.15 in 10.0 mi South 3.5 mph - N/A   Clear
8:15 PM 24.3 °F 16.3 °F 18.1 °F 77% 30.16 in 10.0 mi South 6.9 mph - N/A   Clear
8:35 PM 24.4 °F 16.5 °F 18.1 °F 77% 30.16 in 10.0 mi South 6.9 mph - N/A   Clear
8:55 PM 24.4 °F 16.5 °F 17.8 °F 76% 30.15 in 10.0 mi South 6.9 mph - N/A   Clear
9:15 PM 23.9 °F 15.0 °F 17.6 °F 77% 30.14 in 10.0 mi South 8.1 mph - N/A   Clear
9:35 PM 23.4 °F 13.5 °F 17.1 °F 77% 30.14 in 10.0 mi South 9.2 mph - N/A   Clear
9:55 PM 22.5 °F 14.1 °F 16.5 °F 78% 30.14 in 10.0 mi SSW 6.9 mph - N/A   Clear
10:15 PM 21.4 °F 12.8 °F 15.6 °F 78% 30.14 in 10.0 mi SSW 6.9 mph - N/A   Clear
10:35 PM 21.4 °F 15.1 °F 14.9 °F 76% 30.13 in 10.0 mi SSW 4.6 mph - N/A   Clear
10:55 PM 20.3 °F 15.4 °F 14.4 °F 78% 30.13 in 10.0 mi SSW 3.5 mph - N/A   Clear
11:15 PM 19.8 °F - 13.8 °F 78% 30.13 in 10.0 mi Calm Calm - N/A   Clear
11:35 PM 19.6 °F 13.0 °F 13.5 °F 77% 30.12 in 10.0 mi SSW 4.6 mph - N/A   Clear
11:55 PM 20.1 °F 15.2 °F 13.5 °F 75% 30.11 in 10.0 mi SSW 3.5 mph - N/A   Clear